Regional Weather Roundup
Issued by NWS

Home | Current Version | Previous Version | Graphics & Text | Print | Product List | Glossary On
Versions: 1 2 3 4 5 6 7 8 9 10 11 12 13 14 15 16 17 18 19 20 21 22 23 24 25 26 27 28 29 30 31 32 33 34 35 36 37 38 39 40 41 42 43 44 45 46 47 48 49 50
000
ASUS43 KOAX 250102
RWRNE

WEATHER ROUNDUP FOR NEBRASKA
NATIONAL WEATHER SERVICE OMAHA NE
800 PM CDT WED AUG 24 2016

NOTES: SATELLITE DATA IS BEING USED TO AUGMENT CLOUD COVER ABOVE
       12000 FEET.
       "FAIR" INDICATES FEW OR NO CLOUDS BELOW 12,000 FEET WITH NO
       SIGNIFICANT WEATHER AND/OR OBSTRUCTIONS TO VISIBILITY.

  * THESE STATIONS DO NOT REPORT WEATHER SUCH AS RAIN...SNOW OR FOG.

NEZ001>004-019>022-054>056-250200-
NEBRASKA PANHANDLE

CITY           SKY/WX    TMP DP  RH WIND       PRES   REMARKS
SCOTTSBLUFF    CLOUDY    67  44  43 E10       30.17R
ALLIANCE       MOCLDY    67  47  48 S5        30.18R
CHADRON        CLOUDY    73  40  30 NE6       30.15R
KIMBALL        PTCLDY    66  43  42 SW9       30.23R
SIDNEY         CLOUDY    68  40  35 E8        30.20S
$$

NEZ057>060-069>072-079>082-250200-
SOUTHWEST NEBRASKA

CITY           SKY/WX    TMP DP  RH WIND       PRES   REMARKS
NORTH PLATTE   PTCLDY    68  52  56 E6        30.13R
IMPERIAL       CLOUDY    70  42  36 SE8       30.15R
LEXINGTON      CLOUDY    70  48  45 E8        30.11F
MCCOOK         CLOUDY    69  49  48 E6        30.13R
OGALLALA       CLOUDY    73  42  33 E5        30.15R
$$

NEZ005>010-023>029-035>040-094-250200-
NORTH CENTRAL NEBRASKA

CITY           SKY/WX    TMP DP  RH WIND       PRES   REMARKS
VALENTINE      CLOUDY    68  51  54 SW6       30.14R
AINSWORTH      PTCLDY    65  58  78 CALM      30.15R
BROKEN BOW     MOCLDY    69  50  50 SE7       30.11F
O`NEILL        CLOUDY    69  55  60 NW3       30.12R
ORD            CLOUDY    70  55  59 CALM      30.08F
THEDFORD       CLOUDY    68  51  55 CALM      30.16S
$$

NEZ041-046>049-061>064-073>077-083>087-250200-
SOUTH CENTRAL NEBRASKA

CITY           SKY/WX    TMP DP  RH WIND       PRES   REMARKS
GRAND ISLAND   PTCLDY    65  54  67 N8        30.10F
AURORA         MOCLDY    66  58  74 N5        30.09S
HASTINGS       MOCLDY    66  56  70 NE3       30.11S
HEBRON         PTCLDY    65  58  77 N5        30.07S
HOLDREGE       PTCLDY    67  54  62 NE6       30.11F
KEARNEY *      CLOUDY    68  55  64 N6        30.10F
YORK           CLOUDY    66  61  82 N8        30.08F
$$

NEZ011>018-030>034-042>045-250200-
NORTHEAST NEBRASKA

CITY           SKY/WX    TMP DP  RH WIND       PRES   REMARKS
NORFOLK        CLOUDY    68  58  70 CALM      30.08S
ALBION         CLEAR     65  58  75 CALM      30.10F
BLAIR          CLOUDY    69  62  78 N6        30.03F
FREMONT        MOCLDY    67  63  88 CALM      30.05F
TEKAMAH        CLOUDY    68  64  87 NW7       30.04F
WAYNE          CLOUDY    67  64  89 NW5       30.08F
$$

NEZ050>053-065>068-078-088>093-250200-
SOUTHEAST NEBRASKA

CITY           SKY/WX    TMP DP  RH WIND       PRES   REMARKS
LINCOLN        CLOUDY    69  64  84 N6        30.06R
OMAHA EPPLEY   MOCLDY    70  64  81 N6        30.03R
BEATRICE       MOCLDY    67  63  88 CALM      30.05R
FALLS CITY     LGT RAIN  71  71 100 N8        30.03S
NEBRASKA CITY  CLOUDY    69  69 100 N5        30.03F
PLATTSMOUTH    CLOUDY    69  66  92 NW3       30.04S
$$

NEZ044-045-051>053-067-250200-
OMAHA AREA

CITY           SKY/WX    TMP DP  RH WIND       PRES   REMARKS
OMAHA EPPLEY   MOCLDY    70  64  81 N6        30.03R
BLAIR          CLOUDY    69  62  78 N6        30.03F
FREMONT        MOCLDY    67  63  88 CALM      30.05F
MILLARD        LGT RAIN  72  63  72 CALM      30.03S
OFFUTT AFB     MOCLDY    71  64  79 NE3       30.03R
PLATTSMOUTH    CLOUDY    69  66  92 NW3       30.04S
WAHOO          FAIR      67  62  83 N5        30.04F
$$




USA.gov is the U.S. government's official web portal to all federal, state and local government web resources and services.